Time,TemperatureF,DewpointF,PressureIn,WindDirection,WindDirectionDegrees,WindSpeedMPH,WindSpeedGustMPH,Humidity,HourlyPrecipIn,Conditions,Clouds,dailyrainin,SoftwareType,DateUTC
2013-06-18 00:01:00,68.6,60.7,29.88,NNW,344,0.0,0.0,76,0.00,,OVC110,0.00,VWS V14.01,2013-06-18 04:01:00,
2013-06-18 00:02:00,68.4,60.5,29.88,NNW,344,0.0,0.0,76,0.00,,OVC110,0.00,VWS V14.01,2013-06-18 04:02:00,
2013-06-18 00:07:00,68.3,60.4,29.88,NNW,344,1.2,1.2,76,0.00,,OVC110,0.00,VWS V14.01,2013-06-18 04:07:00,
2013-06-18 00:12:00,68.3,60.7,29.87,NNW,344,1.2,1.2,77,0.00,,OVC110,0.00,VWS V14.01,2013-06-18 04:12:00,
2013-06-18 00:17:00,68.1,60.5,29.87,ENE,78,1.2,1.2,77,0.00,,OVC110,0.00,VWS V14.01,2013-06-18 04:17:00,
2013-06-18 00:22:00,67.9,60.7,29.87,ESE,109,1.2,5.9,78,0.00,,OVC110,0.00,VWS V14.01,2013-06-18 04:22:00,
2013-06-18 00:27:00,67.8,61.0,29.87,SE,129,1.2,4.7,79,0.00,,OVC110,0.00,VWS V14.01,2013-06-18 04:27:00,
2013-06-18 00:32:00,67.6,60.8,29.87,ESE,120,1.2,2.4,79,0.00,,OVC110,0.00,VWS V14.01,2013-06-18 04:32:00,
2013-06-18 00:37:00,67.4,61.0,29.87,ESE,119,1.2,4.7,80,0.00,,OVC110,0.00,VWS V14.01,2013-06-18 04:37:00,
2013-06-18 00:42:00,67.3,60.8,29.86,ESE,120,0.0,0.0,80,0.00,,OVC110,0.00,VWS V14.01,2013-06-18 04:42:00,
2013-06-18 00:47:00,67.3,60.8,29.86,ESE,119,0.0,1.2,80,0.00,,OVC110,0.00,VWS V14.01,2013-06-18 04:47:00,
2013-06-18 00:52:00,67.3,60.8,29.86,ESE,119,0.0,0.0,80,0.00,,OVC110,0.00,VWS V14.01,2013-06-18 04:52:00,
2013-06-18 00:57:00,67.1,61.0,29.87,ESE,119,0.0,0.0,81,0.00,,OVC110,0.00,VWS V14.01,2013-06-18 04:57:00,
2013-06-18 01:02:00,67.1,61.0,29.87,ESE,119,2.4,4.7,81,0.00,,OVC110,0.00,VWS V14.01,2013-06-18 05:02:00,
2013-06-18 01:07:00,67.3,61.6,29.87,North,355,4.7,7.1,82,0.00,,OVC110,0.00,VWS V14.01,2013-06-18 05:07:00,
2013-06-18 01:13:00,67.3,61.9,29.87,North,350,3.5,4.7,83,0.00,,OVC110,0.00,VWS V14.01,2013-06-18 05:13:00,
2013-06-18 01:18:00,67.1,61.4,29.87,NNW,344,3.5,4.7,82,0.00,,OVC110,0.00,VWS V14.01,2013-06-18 05:18:00,
2013-06-18 01:23:00,67.1,61.4,29.87,NNW,344,1.2,2.4,82,0.00,,OVC110,0.00,VWS V14.01,2013-06-18 05:23:00,
2013-06-18 01:28:00,66.9,61.2,29.86,NNW,344,0.0,3.5,82,0.00,,OVC110,0.00,VWS V14.01,2013-06-18 05:28:00,
2013-06-18 01:33:00,66.8,61.1,29.86,NNW,344,0.0,1.2,82,0.00,,OVC110,0.00,VWS V14.01,2013-06-18 05:33:00,
2013-06-18 01:38:00,66.6,60.9,29.86,NNW,344,0.0,0.0,82,0.00,,OVC110,0.00,VWS V14.01,2013-06-18 05:38:00,
2013-06-18 01:43:00,66.6,60.9,29.86,NNW,344,0.0,1.2,82,0.00,,OVC110,0.00,VWS V14.01,2013-06-18 05:43:00,
2013-06-18 01:48:00,66.4,60.7,29.86,NNW,344,0.0,0.0,82,0.00,,OVC110,0.00,VWS V14.01,2013-06-18 05:48:00,
2013-06-18 01:53:00,66.3,60.6,29.86,NNW,344,0.0,0.0,82,0.00,,SCT100,0.00,VWS V14.01,2013-06-18 05:53:00,
2013-06-18 01:58:00,66.1,60.4,29.86,NNW,344,0.0,0.0,82,0.00,,SCT100,0.00,VWS V14.01,2013-06-18 05:58:00,
2013-06-18 02:03:00,66.0,60.3,29.86,NNW,344,0.0,0.0,82,0.00,,SCT100,0.00,VWS V14.01,2013-06-18 06:03:00,
2013-06-18 02:08:00,66.0,60.3,29.86,NNW,344,0.0,0.0,82,0.00,,SCT100,0.00,VWS V14.01,2013-06-18 06:08:00,
2013-06-18 02:13:00,65.8,60.1,29.86,NNW,344,0.0,0.0,82,0.00,,SCT100,0.00,VWS V14.01,2013-06-18 06:13:00,
2013-06-18 02:18:00,65.6,60.2,29.86,NNW,344,0.0,0.0,83,0.00,,SCT100,0.00,VWS V14.01,2013-06-18 06:18:00,
2013-06-18 02:23:00,65.5,60.2,29.85,NNW,344,0.0,0.0,83,0.00,,SCT100,0.00,VWS V14.01,2013-06-18 06:23:00,
2013-06-18 02:28:00,65.5,60.2,29.86,NNW,344,0.0,0.0,83,0.00,,SCT100,0.00,VWS V14.01,2013-06-18 06:28:00,
2013-06-18 02:33:00,65.5,60.2,29.86,NNW,344,0.0,0.0,83,0.00,,SCT100,0.00,VWS V14.01,2013-06-18 06:33:00,
2013-06-18 02:38:00,65.3,60.3,29.86,NNW,344,0.0,0.0,84,0.00,,SCT100,0.00,VWS V14.01,2013-06-18 06:38:00,
2013-06-18 02:43:00,65.2,60.2,29.86,NNW,344,0.0,0.0,84,0.00,,SCT100,0.00,VWS V14.01,2013-06-18 06:43:00,
2013-06-18 02:48:00,65.2,60.2,29.86,NNW,344,0.0,0.0,84,0.00,,SCT100,0.00,VWS V14.01,2013-06-18 06:48:00,
2013-06-18 02:53:00,65.0,60.0,29.86,NNW,344,0.0,0.0,84,0.00,,BKN095,0.00,VWS V14.01,2013-06-18 06:53:00,
2013-06-18 02:58:00,64.8,59.8,29.86,NNW,344,0.0,0.0,84,0.00,,BKN095,0.00,VWS V14.01,2013-06-18 06:58:00,
2013-06-18 03:03:00,64.8,59.8,29.86,NNW,344,0.0,0.0,84,0.00,,BKN095,0.00,VWS V14.01,2013-06-18 07:03:00,
2013-06-18 03:08:00,64.8,60.1,29.86,NNW,344,0.0,0.0,85,0.00,,BKN095,0.00,VWS V14.01,2013-06-18 07:08:00,
2013-06-18 03:13:00,64.7,60.0,29.86,NNW,344,0.0,0.0,85,0.00,,BKN095,0.00,VWS V14.01,2013-06-18 07:13:00,
2013-06-18 03:18:00,64.7,60.0,29.85,NNW,344,0.0,0.0,85,0.00,,BKN095,0.00,VWS V14.01,2013-06-18 07:18:00,
2013-06-18 03:23:00,64.5,59.8,29.85,NNW,344,0.0,0.0,85,0.00,,BKN095,0.00,VWS V14.01,2013-06-18 07:23:00,
2013-06-18 03:28:00,64.3,60.0,29.86,NNW,344,0.0,0.0,86,0.00,,BKN095,0.00,VWS V14.01,2013-06-18 07:28:00,
2013-06-18 03:33:00,64.3,60.0,29.86,NNW,344,0.0,0.0,86,0.00,,BKN095,0.00,VWS V14.01,2013-06-18 07:33:00,
2013-06-18 03:38:00,64.2,59.9,29.86,NNW,344,0.0,0.0,86,0.00,,BKN095,0.00,VWS V14.01,2013-06-18 07:38:00,
2013-06-18 03:43:00,64.0,59.7,29.85,NNW,344,0.0,0.0,86,0.00,,BKN095,0.00,VWS V14.01,2013-06-18 07:43:00,
2013-06-18 03:48:00,63.9,59.6,29.85,NNW,344,0.0,0.0,86,0.00,,BKN095,0.00,VWS V14.01,2013-06-18 07:48:00,
2013-06-18 03:53:00,63.7,59.7,29.85,NNW,344,0.0,0.0,87,0.00,,FEW100,0.00,VWS V14.01,2013-06-18 07:53:00,
2013-06-18 03:58:00,63.5,59.5,29.85,NNW,344,0.0,0.0,87,0.00,,FEW100,0.00,VWS V14.01,2013-06-18 07:58:00,
2013-06-18 04:03:00,63.4,59.4,29.85,NNW,344,0.0,0.0,87,0.00,,FEW100,0.00,VWS V14.01,2013-06-18 08:03:00,
2013-06-18 04:08:00,63.2,59.2,29.86,NNW,344,0.0,0.0,87,0.00,,FEW100,0.00,VWS V14.01,2013-06-18 08:08:00,
2013-06-18 04:13:00,63.1,59.1,29.86,NNW,344,0.0,0.0,87,0.00,,FEW100,0.00,VWS V14.01,2013-06-18 08:13:00,
2013-06-18 04:18:00,62.9,58.9,29.86,NNW,344,0.0,0.0,87,0.00,,FEW100,0.00,VWS V14.01,2013-06-18 08:18:00,
2013-06-18 04:23:00,62.7,58.7,29.87,NNW,344,0.0,1.2,87,0.00,,FEW100,0.00,VWS V14.01,2013-06-18 08:23:00,
2013-06-18 04:28:00,62.7,59.1,29.87,NNW,344,0.0,0.0,88,0.00,,FEW100,0.00,VWS V14.01,2013-06-18 08:28:00,
2013-06-18 04:33:00,62.6,59.0,29.87,NNW,344,0.0,0.0,88,0.00,,FEW100,0.00,VWS V14.01,2013-06-18 08:33:00,
2013-06-18 04:38:00,62.4,58.8,29.87,NNW,344,0.0,1.2,88,0.00,,FEW100,0.00,VWS V14.01,2013-06-18 08:38:00,
2013-06-18 04:43:00,62.4,59.1,29.87,NNW,344,0.0,0.0,89,0.00,,FEW100,0.00,VWS V14.01,2013-06-18 08:43:00,
2013-06-18 04:48:00,62.4,59.1,29.88,NNW,344,1.2,1.2,89,0.00,,FEW100,0.00,VWS V14.01,2013-06-18 08:48:00,
2013-06-18 04:53:00,62.4,59.4,29.90,WNW,285,5.9,7.1,90,0.00,,CLR,0.00,VWS V14.01,2013-06-18 08:53:00,
2013-06-18 04:58:00,62.6,59.9,29.90,WNW,290,2.4,8.3,91,0.00,,CLR,0.00,VWS V14.01,2013-06-18 08:58:00,
2013-06-18 05:03:00,62.6,59.9,29.91,NW,311,7.1,9.4,91,0.00,,CLR,0.00,VWS V14.01,2013-06-18 09:03:00,
2013-06-18 05:08:00,62.6,59.9,29.90,NW,307,4.7,5.9,91,0.02,,CLR,0.02,VWS V14.01,2013-06-18 09:08:00,
2013-06-18 05:13:00,62.7,60.3,29.89,North,5,4.7,5.9,92,0.03,,CLR,0.03,VWS V14.01,2013-06-18 09:13:00,
2013-06-18 05:18:00,62.7,60.3,29.88,North,9,3.5,3.5,92,0.03,,CLR,0.03,VWS V14.01,2013-06-18 09:18:00,
2013-06-18 05:23:00,62.9,60.5,29.87,North,9,1.2,2.4,92,0.03,,CLR,0.03,VWS V14.01,2013-06-18 09:23:00,
2013-06-18 05:28:00,62.9,60.8,29.87,North,10,1.2,2.4,93,0.03,,CLR,0.03,VWS V14.01,2013-06-18 09:28:00,
2013-06-18 05:33:00,62.9,60.8,29.87,North,10,0.0,1.2,93,0.03,,CLR,0.03,VWS V14.01,2013-06-18 09:33:00,
2013-06-18 05:38:00,62.7,60.6,29.87,North,10,0.0,1.2,93,0.03,,CLR,0.03,VWS V14.01,2013-06-18 09:38:00,
2013-06-18 05:43:00,62.9,60.8,29.87,ESE,115,0.0,2.4,93,0.03,,CLR,0.03,VWS V14.01,2013-06-18 09:43:00,
2013-06-18 05:48:00,62.9,60.8,29.87,ESE,115,0.0,0.0,93,0.03,,CLR,0.03,VWS V14.01,2013-06-18 09:48:00,
2013-06-18 05:53:00,62.9,61.1,29.87,ESE,115,0.0,1.2,94,0.03,,-RA,0.03,VWS V14.01,2013-06-18 09:53:00,
2013-06-18 05:58:00,62.9,61.1,29.87,ESE,115,0.0,0.0,94,0.03,,-RA,0.03,VWS V14.01,2013-06-18 09:58:00,
2013-06-18 06:03:00,63.1,61.3,29.87,NE,50,3.5,4.7,94,0.03,,-RA,0.03,VWS V14.01,2013-06-18 10:03:00,
2013-06-18 06:08:00,63.1,61.3,29.88,NNE,25,4.7,4.7,94,0.01,,-RA,0.03,VWS V14.01,2013-06-18 10:08:00,
2013-06-18 06:13:00,63.1,61.3,29.88,NNE,17,3.5,4.7,94,0.00,,-RA,0.03,VWS V14.01,2013-06-18 10:13:00,
2013-06-18 06:18:00,63.1,61.3,29.88,NNE,17,4.7,4.7,94,0.00,,-RA,0.03,VWS V14.01,2013-06-18 10:18:00,
2013-06-18 06:23:00,63.1,61.6,29.88,NNE,16,2.4,3.5,95,0.00,,-RA,0.03,VWS V14.01,2013-06-18 10:23:00,
2013-06-18 06:28:00,62.9,61.4,29.88,NNE,16,1.2,3.5,95,0.00,,-RA,0.03,VWS V14.01,2013-06-18 10:28:00,
2013-06-18 06:33:00,62.9,61.4,29.89,NNE,16,0.0,1.2,95,0.00,,-RA,0.03,VWS V14.01,2013-06-18 10:33:00,
2013-06-18 06:38:00,62.9,61.4,29.89,NNE,16,0.0,0.0,95,0.00,,-RA,0.03,VWS V14.01,2013-06-18 10:38:00,
2013-06-18 06:43:00,62.7,61.2,29.89,NNE,16,0.0,0.0,95,0.00,,-RA,0.03,VWS V14.01,2013-06-18 10:43:00,
2013-06-18 06:48:00,62.7,61.2,29.90,NNE,13,0.0,0.0,95,0.00,,-RA,0.03,VWS V14.01,2013-06-18 10:48:00,
2013-06-18 06:53:00,62.7,61.2,29.90,NNE,18,0.0,0.0,95,0.00,,SCT100,0.03,VWS V14.01,2013-06-18 10:53:00,
2013-06-18 06:58:00,62.7,61.2,29.90,NNE,18,0.0,0.0,95,0.00,,SCT100,0.03,VWS V14.01,2013-06-18 10:58:00,
2013-06-18 07:03:00,62.7,61.2,29.91,NNE,18,0.0,0.0,95,0.00,,SCT100,0.03,VWS V14.01,2013-06-18 11:03:00,
2013-06-18 07:08:00,62.7,61.2,29.91,NNE,18,0.0,0.0,95,0.00,,SCT100,0.03,VWS V14.01,2013-06-18 11:08:00,
2013-06-18 07:13:00,62.7,61.2,29.91,NNE,18,0.0,0.0,95,0.00,,SCT100,0.03,VWS V14.01,2013-06-18 11:13:00,
2013-06-18 07:18:00,62.7,61.2,29.92,NNE,18,0.0,0.0,95,0.00,,SCT100,0.03,VWS V14.01,2013-06-18 11:18:00,
2013-06-18 07:23:00,62.7,61.5,29.92,NNE,18,1.2,1.2,96,0.00,,SCT100,0.03,VWS V14.01,2013-06-18 11:23:00,
2013-06-18 07:28:00,62.9,61.7,29.92,NNE,18,0.0,3.5,96,0.00,,SCT100,0.03,VWS V14.01,2013-06-18 11:28:00,
2013-06-18 07:33:00,63.1,62.2,29.92,NNE,19,0.0,1.2,97,0.00,,SCT100,0.03,VWS V14.01,2013-06-18 11:33:00,
2013-06-18 07:38:00,63.2,62.3,29.92,NNE,19,0.0,1.2,97,0.00,,SCT100,0.03,VWS V14.01,2013-06-18 11:38:00,
2013-06-18 07:43:00,63.4,62.8,29.92,NNE,19,3.5,3.5,98,0.00,,SCT100,0.03,VWS V14.01,2013-06-18 11:43:00,
2013-06-18 07:48:00,63.4,62.8,29.92,NNE,20,2.4,2.4,98,0.00,,SCT100,0.03,VWS V14.01,2013-06-18 11:48:00,
2013-06-18 07:53:00,63.5,62.9,29.92,NNE,18,2.4,4.7,98,0.00,,CLR,0.03,VWS V14.01,2013-06-18 11:53:00,
2013-06-18 07:58:00,63.5,62.9,29.93,NNE,13,7.1,8.3,98,0.00,,CLR,0.03,VWS V14.01,2013-06-18 11:58:00,
2013-06-18 08:03:00,63.5,62.6,29.93,NNE,15,4.7,5.9,97,0.00,,CLR,0.03,VWS V14.01,2013-06-18 12:03:00,
2013-06-18 08:08:00,63.4,62.5,29.93,NNE,15,3.5,3.5,97,0.00,,CLR,0.03,VWS V14.01,2013-06-18 12:08:00,
2013-06-18 08:13:00,63.4,62.5,29.93,NNE,15,1.2,3.5,97,0.00,,CLR,0.03,VWS V14.01,2013-06-18 12:13:00,
2013-06-18 08:18:00,63.4,62.5,29.93,NNE,15,2.4,4.7,97,0.00,,CLR,0.03,VWS V14.01,2013-06-18 12:18:00,
2013-06-18 08:23:00,63.2,62.3,29.94,NNE,15,0.0,5.9,97,0.00,,CLR,0.03,VWS V14.01,2013-06-18 12:23:00,
2013-06-18 08:28:00,63.2,62.3,29.94,North,5,0.0,2.4,97,0.00,,CLR,0.03,VWS V14.01,2013-06-18 12:28:00,
2013-06-18 08:33:00,63.1,61.9,29.94,NE,46,0.0,4.7,96,0.00,,CLR,0.03,VWS V14.01,2013-06-18 12:33:00,
2013-06-18 08:38:00,63.1,61.9,29.95,NE,46,2.4,3.5,96,0.00,,CLR,0.03,VWS V14.01,2013-06-18 12:38:00,
2013-06-18 08:43:00,62.9,61.7,29.95,NNE,19,4.7,4.7,96,0.00,,CLR,0.03,VWS V14.01,2013-06-18 12:43:00,
2013-06-18 08:48:00,62.9,61.7,29.95,NNE,29,0.0,2.4,96,0.00,,CLR,0.03,VWS V14.01,2013-06-18 12:48:00,
2013-06-18 08:53:00,62.7,61.5,29.95,NNE,14,5.9,5.9,96,0.00,,CLR,0.03,VWS V14.01,2013-06-18 12:53:00,
2013-06-18 08:58:00,62.7,61.5,29.95,NNE,13,2.4,4.7,96,0.00,,CLR,0.03,VWS V14.01,2013-06-18 12:58:00,
2013-06-18 09:03:00,62.7,61.2,29.96,NNE,14,4.7,4.7,95,0.00,,CLR,0.03,VWS V14.01,2013-06-18 13:03:00,
2013-06-18 09:08:00,62.6,61.1,29.95,NNE,26,2.4,2.4,95,0.00,,CLR,0.03,VWS V14.01,2013-06-18 13:08:00,
2013-06-18 09:13:00,62.6,61.1,29.95,ENE,63,2.4,2.4,95,0.00,,CLR,0.03,VWS V14.01,2013-06-18 13:13:00,
2013-06-18 09:18:00,62.6,61.1,29.95,NNE,19,2.4,4.7,95,0.00,,CLR,0.03,VWS V14.01,2013-06-18 13:18:00,
2013-06-18 09:23:00,62.6,61.1,29.96,NE,49,2.4,4.7,95,0.00,,BKN005,0.03,VWS V14.01,2013-06-18 13:23:00,
2013-06-18 09:28:00,62.6,61.1,29.96,ENE,59,0.0,3.5,95,0.00,,BKN005,0.03,VWS V14.01,2013-06-18 13:28:00,
2013-06-18 09:33:00,62.7,61.2,29.96,NE,49,1.2,4.7,95,0.00,,BKN005,0.03,VWS V14.01,2013-06-18 13:33:00,
2013-06-18 09:38:00,62.7,60.9,29.96,NE,46,0.0,3.5,94,0.00,,BKN005,0.03,VWS V14.01,2013-06-18 13:38:00,
2013-06-18 09:43:00,62.7,60.9,29.96,NNE,24,4.7,4.7,94,0.00,,BKN005,0.03,VWS V14.01,2013-06-18 13:43:00,
2013-06-18 09:48:00,62.7,60.9,29.96,North,5,3.5,4.7,94,0.00,,BKN005,0.03,VWS V14.01,2013-06-18 13:48:00,
2013-06-18 09:53:00,62.9,60.8,29.97,North,5,2.4,2.4,93,0.00,,OVC005,0.03,VWS V14.01,2013-06-18 13:53:00,
2013-06-18 09:58:00,62.7,60.6,29.97,North,350,7.1,7.1,93,0.00,,OVC005,0.03,VWS V14.01,2013-06-18 13:58:00,
2013-06-18 10:03:00,62.9,60.8,29.97,NNE,13,4.7,5.9,93,0.00,,OVC005,0.03,VWS V14.01,2013-06-18 14:03:00,
2013-06-18 10:08:00,62.9,60.5,29.98,North,5,3.5,3.5,92,0.00,,OVC005,0.03,VWS V14.01,2013-06-18 14:08:00,
2013-06-18 10:13:00,62.9,60.5,29.97,NNE,29,3.5,3.5,92,0.00,,OVC005,0.03,VWS V14.01,2013-06-18 14:13:00,
2013-06-18 10:18:00,63.1,60.4,29.97,NE,36,2.4,3.5,91,0.00,,OVC005,0.03,VWS V14.01,2013-06-18 14:18:00,
2013-06-18 10:23:00,63.2,60.5,29.97,ESE,110,4.7,5.9,91,0.00,,OVC005,0.03,VWS V14.01,2013-06-18 14:23:00,
2013-06-18 10:28:00,63.2,60.5,29.97,NNE,30,4.7,4.7,91,0.00,,OVC005,0.03,VWS V14.01,2013-06-18 14:28:00,
2013-06-18 10:33:00,63.4,60.4,29.97,NE,38,3.5,5.9,90,0.00,,OVC005,0.03,VWS V14.01,2013-06-18 14:33:00,
2013-06-18 10:38:00,63.4,60.1,29.97,North,11,4.7,5.9,89,0.00,,OVC005,0.03,VWS V14.01,2013-06-18 14:38:00,
2013-06-18 10:43:00,63.5,60.2,29.97,NNE,25,4.7,4.7,89,0.00,,OVC005,0.03,VWS V14.01,2013-06-18 14:43:00,
2013-06-18 10:48:00,63.7,60.4,29.97,NNE,24,0.0,0.0,89,0.00,,OVC005,0.03,VWS V14.01,2013-06-18 14:48:00,
2013-06-18 10:53:00,63.9,60.2,29.97,ENE,74,3.5,3.5,88,0.00,,OVC007,0.03,VWS V14.01,2013-06-18 14:53:00,
2013-06-18 10:58:00,64.0,60.3,29.97,East,88,0.0,0.0,88,0.00,,OVC007,0.03,VWS V14.01,2013-06-18 14:58:00,
2013-06-18 11:03:00,64.3,60.6,29.97,NE,53,3.5,7.1,88,0.00,,OVC007,0.03,VWS V14.01,2013-06-18 15:03:00,
2013-06-18 11:08:00,64.3,60.3,29.97,NNE,25,4.7,4.7,87,0.00,,OVC007,0.03,VWS V14.01,2013-06-18 15:08:00,
2013-06-18 11:13:00,64.3,60.0,29.97,NE,46,0.0,2.4,86,0.00,,OVC007,0.03,VWS V14.01,2013-06-18 15:13:00,
2013-06-18 11:18:00,64.5,59.8,29.97,North,9,2.4,5.9,85,0.00,,OVC007,0.03,VWS V14.01,2013-06-18 15:18:00,
2013-06-18 11:23:00,64.5,59.8,29.97,NNE,32,4.7,4.7,85,0.00,,OVC007,0.03,VWS V14.01,2013-06-18 15:23:00,
2013-06-18 11:28:00,64.5,59.8,29.97,North,11,4.7,4.7,85,0.00,,OVC007,0.03,VWS V14.01,2013-06-18 15:28:00,
2013-06-18 11:33:00,64.5,59.5,29.97,East,93,2.4,4.7,84,0.00,,OVC007,0.03,VWS V14.01,2013-06-18 15:33:00,
2013-06-18 11:38:00,64.7,59.7,29.97,East,86,1.2,4.7,84,0.00,,OVC007,0.03,VWS V14.01,2013-06-18 15:38:00,
2013-06-18 11:44:00,64.8,59.8,29.97,NE,37,3.5,4.7,84,0.00,,OVC007,0.03,VWS V14.01,2013-06-18 15:44:00,
2013-06-18 11:49:00,65.2,60.2,29.97,NNE,12,3.5,5.9,84,0.00,,OVC007,0.03,VWS V14.01,2013-06-18 15:49:00,
2013-06-18 11:54:00,65.6,60.2,29.97,SE,128,7.1,9.4,83,0.00,,OVC011,0.03,VWS V14.01,2013-06-18 15:54:00,
2013-06-18 11:59:00,66.1,61.1,29.97,ESE,113,5.9,5.9,84,0.00,,OVC011,0.03,VWS V14.01,2013-06-18 15:59:00,
2013-06-18 12:04:00,66.4,60.7,29.97,East,98,4.7,8.3,82,0.00,,OVC011,0.03,VWS V14.01,2013-06-18 16:04:00,
2013-06-18 12:09:00,67.1,61.4,29.97,East,85,1.2,1.2,82,0.00,,OVC011,0.03,VWS V14.01,2013-06-18 16:09:00,
2013-06-18 12:14:00,67.6,61.1,29.97,NE,37,1.2,4.7,80,0.00,,OVC011,0.03,VWS V14.01,2013-06-18 16:14:00,
2013-06-18 12:19:00,68.3,61.5,29.97,ESE,121,5.9,8.3,79,0.00,,OVC011,0.03,VWS V14.01,2013-06-18 16:19:00,
2013-06-18 12:24:00,68.8,61.6,29.96,ENE,63,1.2,4.7,78,0.00,,OVC011,0.03,VWS V14.01,2013-06-18 16:24:00,
2013-06-18 12:29:00,69.3,61.7,29.96,East,81,2.4,4.7,77,0.00,,OVC011,0.03,VWS V14.01,2013-06-18 16:29:00,
2013-06-18 12:34:00,69.8,61.4,29.96,ESE,113,5.9,5.9,75,0.00,,OVC011,0.03,VWS V14.01,2013-06-18 16:34:00,
2013-06-18 12:39:00,70.1,61.3,29.96,ENE,68,2.4,3.5,74,0.00,,OVC011,0.03,VWS V14.01,2013-06-18 16:39:00,
2013-06-18 12:44:00,70.4,61.6,29.96,North,351,1.2,4.7,74,0.00,,OVC011,0.03,VWS V14.01,2013-06-18 16:44:00,
2013-06-18 12:49:00,70.8,61.2,29.96,NNE,13,0.0,5.9,72,0.00,,OVC011,0.03,VWS V14.01,2013-06-18 16:49:00,
2013-06-18 12:54:00,70.9,61.3,29.96,SE,130,2.4,4.7,72,0.00,,SCT015,0.03,VWS V14.01,2013-06-18 16:54:00,
2013-06-18 12:59:00,71.3,61.7,29.96,NE,50,1.2,10.6,72,0.00,,SCT015,0.03,VWS V14.01,2013-06-18 16:59:00,
2013-06-18 13:04:00,71.6,61.2,29.96,North,360,2.4,5.9,70,0.00,,SCT015,0.03,VWS V14.01,2013-06-18 17:04:00,
2013-06-18 13:09:00,72.1,61.7,29.96,East,101,2.4,2.4,70,0.00,,SCT015,0.03,VWS V14.01,2013-06-18 17:09:00,
2013-06-18 13:14:00,72.5,61.2,29.96,NNE,26,1.2,3.5,68,0.00,,SCT015,0.03,VWS V14.01,2013-06-18 17:14:00,
2013-06-18 13:19:00,72.7,61.0,29.96,ESE,110,5.9,9.4,67,0.00,,SCT015,0.03,VWS V14.01,2013-06-18 17:19:00,
2013-06-18 13:24:00,72.8,61.5,29.96,ENE,61,4.7,5.9,68,0.00,,SCT015,0.03,VWS V14.01,2013-06-18 17:24:00,
2013-06-18 13:29:00,73.2,61.5,29.96,East,90,4.7,4.7,67,0.00,,SCT015,0.03,VWS V14.01,2013-06-18 17:29:00,
2013-06-18 13:34:00,73.9,62.1,29.96,ENE,69,2.4,8.3,67,0.00,,SCT015,0.03,VWS V14.01,2013-06-18 17:34:00,
2013-06-18 13:39:00,74.2,61.5,29.96,NE,46,4.7,4.7,65,0.00,,SCT015,0.03,VWS V14.01,2013-06-18 17:39:00,
2013-06-18 13:44:00,74.4,61.3,29.96,ESE,109,5.9,5.9,64,0.00,,SCT015,0.03,VWS V14.01,2013-06-18 17:44:00,
2013-06-18 13:49:00,74.6,61.0,29.96,NNE,31,3.5,5.9,63,0.00,,SCT015,0.03,VWS V14.01,2013-06-18 17:49:00,
2013-06-18 13:54:00,74.9,61.8,29.96,NE,49,3.5,5.9,64,0.00,,SCT019,0.03,VWS V14.01,2013-06-18 17:54:00,
2013-06-18 13:59:00,75.3,61.2,29.97,NE,38,0.0,4.7,62,0.00,,SCT019,0.03,VWS V14.01,2013-06-18 17:59:00,
2013-06-18 14:04:00,75.4,60.4,29.97,ESE,119,10.6,10.6,60,0.00,,SCT019,0.03,VWS V14.01,2013-06-18 18:04:00,
2013-06-18 14:09:00,75.8,61.7,29.97,ESE,104,1.2,10.6,62,0.00,,SCT019,0.03,VWS V14.01,2013-06-18 18:09:00,
2013-06-18 14:14:00,76.1,61.5,29.96,NE,49,3.5,7.1,61,0.00,,SCT019,0.03,VWS V14.01,2013-06-18 18:14:00,
2013-06-18 14:19:00,76.5,61.9,29.96,North,355,2.4,2.4,61,0.00,,SCT019,0.03,VWS V14.01,2013-06-18 18:19:00,
2013-06-18 14:24:00,77.0,61.4,29.96,ENE,57,2.4,7.1,59,0.00,,SCT019,0.03,VWS V14.01,2013-06-18 18:24:00,
2013-06-18 14:29:00,77.4,61.8,29.96,ENE,73,3.5,3.5,59,0.00,,SCT019,0.03,VWS V14.01,2013-06-18 18:29:00,
2013-06-18 14:34:00,77.7,61.0,29.96,East,80,2.4,2.4,57,0.00,,SCT019,0.03,VWS V14.01,2013-06-18 18:34:00,
2013-06-18 14:39:00,77.7,60.5,29.97,ESE,115,7.1,7.1,56,0.00,,SCT019,0.03,VWS V14.01,2013-06-18 18:39:00,
2013-06-18 14:44:00,77.9,61.2,29.97,ESE,103,2.4,2.4,57,0.00,,SCT019,0.03,VWS V14.01,2013-06-18 18:44:00,
2013-06-18 14:49:00,77.9,60.2,29.96,NNE,26,3.5,5.9,55,0.00,,SCT019,0.03,VWS V14.01,2013-06-18 18:49:00,
2013-06-18 14:54:00,77.7,61.0,29.96,NE,46,0.0,2.4,57,0.00,,BKN033,0.03,VWS V14.01,2013-06-18 18:54:00,
2013-06-18 14:59:00,77.6,60.5,29.97,East,94,0.0,4.7,56,0.00,,BKN033,0.03,VWS V14.01,2013-06-18 18:59:00,
2013-06-18 15:04:00,77.6,60.5,29.97,East,94,1.2,2.4,56,0.00,,BKN033,0.03,VWS V14.01,2013-06-18 19:04:00,
2013-06-18 15:09:00,77.4,60.3,29.96,North,9,7.1,7.1,56,0.00,,BKN033,0.03,VWS V14.01,2013-06-18 19:09:00,
2013-06-18 15:14:00,77.6,60.5,29.96,NNW,338,0.0,1.2,56,0.00,,BKN033,0.03,VWS V14.01,2013-06-18 19:14:00,
2013-06-18 15:19:00,77.9,61.2,29.96,NNE,30,3.5,3.5,57,0.00,,BKN033,0.03,VWS V14.01,2013-06-18 19:19:00,
2013-06-18 15:24:00,78.5,61.3,29.96,NE,42,4.7,5.9,56,0.00,,BKN033,0.03,VWS V14.01,2013-06-18 19:24:00,
2013-06-18 15:29:00,78.6,60.3,29.96,NE,42,2.4,3.5,54,0.00,,BKN033,0.03,VWS V14.01,2013-06-18 19:29:00,
2013-06-18 15:34:00,78.6,59.3,29.96,NNE,29,1.2,3.5,52,0.00,,BKN033,0.03,VWS V14.01,2013-06-18 19:34:00,
2013-06-18 15:39:00,78.5,59.7,29.96,NE,50,5.9,5.9,53,0.00,,BKN033,0.03,VWS V14.01,2013-06-18 19:39:00,
2013-06-18 15:44:00,78.3,59.0,29.96,NNE,20,1.2,5.9,52,0.00,,BKN033,0.03,VWS V14.01,2013-06-18 19:44:00,
2013-06-18 15:49:00,78.3,59.0,29.96,NE,38,2.4,3.5,52,0.00,,BKN033,0.03,VWS V14.01,2013-06-18 19:49:00,
2013-06-18 15:54:00,78.3,59.5,29.96,NNE,26,8.3,9.4,53,0.00,,SCT036,0.03,VWS V14.01,2013-06-18 19:54:00,
2013-06-18 15:59:00,78.3,59.5,29.96,NE,34,3.5,3.5,53,0.00,,SCT036,0.03,VWS V14.01,2013-06-18 19:59:00,
2013-06-18 16:04:00,78.1,60.4,29.95,NE,38,2.4,5.9,55,0.00,,SCT036,0.03,VWS V14.01,2013-06-18 20:04:00,
2013-06-18 16:09:00,78.1,59.3,29.95,NNE,33,5.9,8.3,53,0.00,,SCT036,0.03,VWS V14.01,2013-06-18 20:09:00,
2013-06-18 16:14:00,78.1,59.3,29.96,NE,38,3.5,5.9,53,0.00,,SCT036,0.03,VWS V14.01,2013-06-18 20:14:00,
2013-06-18 16:19:00,78.5,60.2,29.95,NE,42,3.5,3.5,54,0.00,,SCT036,0.03,VWS V14.01,2013-06-18 20:19:00,
2013-06-18 16:24:00,78.8,60.5,29.96,NNE,13,3.5,5.9,54,0.00,,SCT036,0.03,VWS V14.01,2013-06-18 20:24:00,
2013-06-18 16:29:00,79.0,59.6,29.96,NNE,21,5.9,5.9,52,0.00,,SCT036,0.03,VWS V14.01,2013-06-18 20:29:00,
2013-06-18 16:34:00,79.0,59.6,29.96,ENE,76,1.2,2.4,52,0.00,,SCT036,0.03,VWS V14.01,2013-06-18 20:34:00,
2013-06-18 16:39:00,78.6,59.8,29.96,North,360,9.4,9.4,53,0.00,,SCT036,0.03,VWS V14.01,2013-06-18 20:39:00,
2013-06-18 16:44:00,78.3,59.5,29.96,ENE,61,2.4,5.9,53,0.00,,SCT036,0.03,VWS V14.01,2013-06-18 20:44:00,
2013-06-18 16:49:00,78.1,59.3,29.96,NE,53,1.2,4.7,53,0.00,,SCT036,0.03,VWS V14.01,2013-06-18 20:49:00,
2013-06-18 16:54:00,78.1,58.2,29.96,NE,43,1.2,4.7,50,0.00,,FEW040,0.03,VWS V14.01,2013-06-18 20:54:00,
2013-06-18 16:59:00,77.7,58.4,29.96,North,5,5.9,7.1,52,0.00,,FEW040,0.03,VWS V14.01,2013-06-18 20:59:00,
2013-06-18 17:04:00,77.6,58.9,29.96,NE,37,3.5,5.9,53,0.00,,FEW040,0.03,VWS V14.01,2013-06-18 21:04:00,
2013-06-18 17:09:00,77.6,58.9,29.96,ENE,59,7.1,9.4,53,0.00,,FEW040,0.03,VWS V14.01,2013-06-18 21:09:00,
2013-06-18 17:14:00,77.6,58.3,29.96,East,84,4.7,7.1,52,0.00,,FEW040,0.03,VWS V14.01,2013-06-18 21:14:00,
2013-06-18 17:19:00,77.4,58.2,29.96,NNE,33,5.9,7.1,52,0.00,,FEW040,0.03,VWS V14.01,2013-06-18 21:19:00,
2013-06-18 17:24:00,77.2,58.5,29.96,North,360,4.7,5.9,53,0.00,,FEW040,0.03,VWS V14.01,2013-06-18 21:24:00,
2013-06-18 17:29:00,77.2,58.5,29.96,ENE,64,3.5,9.4,53,0.00,,FEW040,0.03,VWS V14.01,2013-06-18 21:29:00,
2013-06-18 17:34:00,77.2,58.0,29.95,ENE,60,2.4,8.3,52,0.00,,FEW040,0.03,VWS V14.01,2013-06-18 21:34:00,
2013-06-18 17:39:00,77.6,58.9,29.95,NNE,15,3.5,7.1,53,0.00,,FEW040,0.03,VWS V14.01,2013-06-18 21:39:00,
2013-06-18 17:44:00,77.7,57.9,29.96,NNE,33,5.9,7.1,50,0.00,,FEW040,0.03,VWS V14.01,2013-06-18 21:44:00,
2013-06-18 17:49:00,77.7,58.4,29.96,ENE,62,4.7,4.7,52,0.00,,FEW040,0.03,VWS V14.01,2013-06-18 21:49:00,
2013-06-18 17:54:00,77.7,58.4,29.96,NNW,338,1.2,4.7,52,0.00,,SCT045,0.03,VWS V14.01,2013-06-18 21:54:00,
2013-06-18 17:59:00,77.6,57.2,29.96,NNE,18,5.9,8.3,49,0.00,,SCT045,0.03,VWS V14.01,2013-06-18 21:59:00,
2013-06-18 18:04:00,77.2,57.4,29.96,NNE,33,1.2,4.7,50,0.00,,SCT045,0.03,VWS V14.01,2013-06-18 22:04:00,
2013-06-18 18:09:00,76.8,57.6,29.96,NNE,20,4.7,4.7,52,0.00,,SCT045,0.03,VWS V14.01,2013-06-18 22:09:00,
2013-06-18 18:14:00,76.7,58.6,29.96,NNE,13,4.7,8.3,54,0.00,,SCT045,0.03,VWS V14.01,2013-06-18 22:14:00,
2013-06-18 18:19:00,76.5,57.9,29.96,NNE,28,3.5,4.7,53,0.00,,SCT045,0.03,VWS V14.01,2013-06-18 22:19:00,
2013-06-18 18:24:00,76.3,58.2,29.96,NE,46,2.4,3.5,54,0.00,,SCT045,0.03,VWS V14.01,2013-06-18 22:24:00,
2013-06-18 18:29:00,76.0,57.4,29.96,North,5,5.9,5.9,53,0.00,,SCT045,0.03,VWS V14.01,2013-06-18 22:29:00,
2013-06-18 18:34:00,75.6,57.6,29.96,NNE,22,3.5,7.1,54,0.00,,SCT045,0.03,VWS V14.01,2013-06-18 22:34:00,
2013-06-18 18:39:00,75.4,57.4,29.96,NNE,29,3.5,4.7,54,0.00,,SCT045,0.03,VWS V14.01,2013-06-18 22:39:00,
2013-06-18 18:44:00,75.1,57.1,29.96,NNE,21,2.4,3.5,54,0.00,,SCT045,0.03,VWS V14.01,2013-06-18 22:44:00,
2013-06-18 18:49:00,75.1,57.6,29.96,North,5,5.9,5.9,55,0.00,,SCT045,0.03,VWS V14.01,2013-06-18 22:49:00,
2013-06-18 18:54:00,75.1,56.6,29.96,NE,46,0.0,3.5,53,0.00,,OVC055,0.03,VWS V14.01,2013-06-18 22:54:00,
2013-06-18 18:59:00,75.3,57.3,29.96,North,5,8.3,8.3,54,0.00,,OVC055,0.03,VWS V14.01,2013-06-18 22:59:00,
2013-06-18 19:04:00,75.4,57.4,29.96,NE,34,7.1,8.3,54,0.00,,OVC055,0.03,VWS V14.01,2013-06-18 23:04:00,
2013-06-18 19:09:00,75.4,56.8,29.97,NE,46,3.5,4.7,53,0.00,,OVC055,0.03,VWS V14.01,2013-06-18 23:09:00,
2013-06-18 19:14:00,75.4,56.8,29.97,NE,36,3.5,5.9,53,0.00,,OVC055,0.03,VWS V14.01,2013-06-18 23:14:00,
2013-06-18 19:19:00,74.9,55.8,29.97,North,9,5.9,7.1,52,0.00,,OVC055,0.03,VWS V14.01,2013-06-18 23:19:00,
2013-06-18 19:24:00,74.4,55.9,29.97,NE,52,2.4,3.5,53,0.00,,OVC055,0.03,VWS V14.01,2013-06-18 23:24:00,
2013-06-18 19:29:00,74.0,56.1,29.97,NE,36,2.4,3.5,54,0.00,,OVC055,0.03,VWS V14.01,2013-06-18 23:29:00,
2013-06-18 19:34:00,74.0,56.6,29.97,NE,45,2.4,4.7,55,0.00,,OVC055,0.03,VWS V14.01,2013-06-18 23:34:00,
2013-06-18 19:39:00,74.0,56.6,29.97,NE,36,5.9,9.4,55,0.00,,OVC055,0.03,VWS V14.01,2013-06-18 23:39:00,
2013-06-18 19:44:00,73.9,56.5,29.97,NNE,25,3.5,4.7,55,0.00,,OVC055,0.03,VWS V14.01,2013-06-18 23:44:00,
2013-06-18 19:49:00,73.7,56.3,29.97,NNE,30,3.5,4.7,55,0.00,,OVC055,0.03,VWS V14.01,2013-06-18 23:49:00,
2013-06-18 19:54:00,73.5,56.1,29.97,North,5,2.4,7.1,55,0.00,,FEW050,0.03,VWS V14.01,2013-06-18 23:54:00,
2013-06-18 19:59:00,73.2,55.8,29.97,NNE,25,3.5,5.9,55,0.00,,FEW050,0.03,VWS V14.01,2013-06-18 23:59:00,
2013-06-18 20:04:00,72.8,56.0,29.97,NE,36,3.5,4.7,56,0.00,,FEW050,0.03,VWS V14.01,2013-06-19 00:04:00,
2013-06-18 20:09:00,72.5,55.7,29.98,NNE,15,3.5,4.7,56,0.00,,FEW050,0.03,VWS V14.01,2013-06-19 00:09:00,
2013-06-18 20:14:00,72.1,55.8,29.98,NNE,12,3.5,7.1,57,0.00,,FEW050,0.03,VWS V14.01,2013-06-19 00:14:00,
2013-06-18 20:19:00,71.6,55.8,29.98,NNE,12,5.9,5.9,58,0.00,,FEW050,0.03,VWS V14.01,2013-06-19 00:19:00,
2013-06-18 20:24:00,71.3,55.6,29.98,NNE,21,3.5,3.5,58,0.00,,CLR,0.03,VWS V14.01,2013-06-19 00:24:00,
2013-06-18 20:29:00,71.1,55.4,29.98,NE,44,4.7,4.7,58,0.00,,CLR,0.03,VWS V14.01,2013-06-19 00:29:00,
2013-06-18 20:34:00,70.8,55.1,29.99,NE,42,5.9,5.9,58,0.00,,CLR,0.03,VWS V14.01,2013-06-19 00:34:00,
2013-06-18 20:39:00,70.6,54.9,29.98,NE,47,1.2,3.5,58,0.00,,CLR,0.03,VWS V14.01,2013-06-19 00:39:00,
2013-06-18 20:44:00,70.4,55.2,29.99,NE,34,3.5,4.7,59,0.00,,CLR,0.03,VWS V14.01,2013-06-19 00:44:00,
2013-06-18 20:49:00,70.1,54.9,29.99,NNE,15,0.0,4.7,59,0.00,,CLR,0.03,VWS V14.01,2013-06-19 00:49:00,
2013-06-18 20:54:00,69.9,54.7,29.99,NE,37,3.5,4.7,59,0.00,,CLR,0.03,VWS V14.01,2013-06-19 00:54:00,
2013-06-18 20:59:00,69.6,54.5,29.99,NE,49,0.0,2.4,59,0.00,,CLR,0.03,VWS V14.01,2013-06-19 00:59:00,
2013-06-18 21:04:00,69.4,54.3,29.99,NE,49,0.0,2.4,59,0.00,,CLR,0.03,VWS V14.01,2013-06-19 01:04:00,
2013-06-18 21:09:00,69.3,54.7,29.99,NE,49,1.2,3.5,60,0.00,,CLR,0.03,VWS V14.01,2013-06-19 01:09:00,
2013-06-18 21:14:00,68.9,54.3,30.00,NE,48,0.0,1.2,60,0.00,,CLR,0.03,VWS V14.01,2013-06-19 01:14:00,
2013-06-18 21:19:00,68.8,54.2,30.00,NE,48,0.0,0.0,60,0.00,,CLR,0.03,VWS V14.01,2013-06-19 01:19:00,
2013-06-18 21:24:00,68.4,54.3,30.00,NE,48,0.0,1.2,61,0.00,,CLR,0.03,VWS V14.01,2013-06-19 01:24:00,
2013-06-18 21:29:00,68.3,54.2,30.00,NE,48,0.0,1.2,61,0.00,,CLR,0.03,VWS V14.01,2013-06-19 01:29:00,
2013-06-18 21:34:00,67.9,54.2,30.00,NE,48,0.0,1.2,62,0.00,,CLR,0.03,VWS V14.01,2013-06-19 01:34:00,
2013-06-18 21:39:00,67.8,54.2,30.00,NE,48,2.4,2.4,62,0.00,,CLR,0.03,VWS V14.01,2013-06-19 01:39:00,
2013-06-18 21:44:00,67.4,54.2,30.00,NE,48,1.2,2.4,63,0.00,,CLR,0.03,VWS V14.01,2013-06-19 01:44:00,
2013-06-18 21:49:00,67.1,53.9,30.00,NE,48,0.0,1.2,63,0.00,,CLR,0.03,VWS V14.01,2013-06-19 01:49:00,
2013-06-18 21:54:00,66.9,53.7,30.00,NE,48,1.2,1.2,63,0.00,,CLR,0.03,VWS V14.01,2013-06-19 01:54:00,
2013-06-18 21:59:00,66.8,54.1,30.00,NE,48,3.5,3.5,64,0.00,,CLR,0.03,VWS V14.01,2013-06-19 01:59:00,
2013-06-18 22:04:00,66.4,53.3,30.01,NE,46,2.4,3.5,63,0.00,,CLR,0.03,VWS V14.01,2013-06-19 02:04:00,
2013-06-18 22:09:00,66.3,53.2,30.01,NE,46,2.4,3.5,63,0.00,,CLR,0.03,VWS V14.01,2013-06-19 02:09:00,
2013-06-18 22:14:00,66.0,52.9,30.01,NE,41,3.5,4.7,63,0.00,,CLR,0.03,VWS V14.01,2013-06-19 02:14:00,
2013-06-18 22:19:00,65.8,52.7,30.02,NNE,32,3.5,3.5,63,0.00,,CLR,0.03,VWS V14.01,2013-06-19 02:19:00,
2013-06-18 22:24:00,65.6,52.5,30.02,NNE,31,1.2,3.5,63,0.00,,CLR,0.03,VWS V14.01,2013-06-19 02:24:00,
2013-06-18 22:29:00,65.5,52.4,30.02,NNE,32,1.2,1.2,63,0.00,,CLR,0.03,VWS V14.01,2013-06-19 02:29:00,
2013-06-18 22:34:00,65.3,52.2,30.02,NNE,32,0.0,3.5,63,0.00,,CLR,0.03,VWS V14.01,2013-06-19 02:34:00,
2013-06-18 22:39:00,65.2,52.1,30.02,NNE,32,0.0,2.4,63,0.00,,CLR,0.03,VWS V14.01,2013-06-19 02:39:00,
2013-06-18 22:44:00,65.0,52.0,30.03,NNE,32,0.0,1.2,63,0.00,,CLR,0.03,VWS V14.01,2013-06-19 02:44:00,
2013-06-18 22:49:00,64.8,51.8,30.03,NE,40,1.2,2.4,63,0.00,,CLR,0.03,VWS V14.01,2013-06-19 02:49:00,
2013-06-18 22:54:00,64.5,51.5,30.03,NE,40,1.2,2.4,63,0.00,,CLR,0.03,VWS V14.01,2013-06-19 02:54:00,
2013-06-18 22:59:00,64.3,51.7,30.03,ENE,75,2.4,3.5,64,0.00,,CLR,0.03,VWS V14.01,2013-06-19 02:59:00,
2013-06-18 23:04:00,64.2,51.2,30.03,ENE,57,3.5,4.7,63,0.00,,CLR,0.03,VWS V14.01,2013-06-19 03:04:00,
2013-06-18 23:09:00,64.0,51.0,30.03,NE,44,0.0,0.0,63,0.00,,CLR,0.03,VWS V14.01,2013-06-19 03:09:00,
2013-06-18 23:14:00,63.9,50.9,30.03,NE,51,1.2,2.4,63,0.00,,CLR,0.03,VWS V14.01,2013-06-19 03:14:00,
2013-06-18 23:19:00,63.5,50.5,30.03,NNE,12,0.0,0.0,63,0.00,,CLR,0.03,VWS V14.01,2013-06-19 03:19:00,
2013-06-18 23:24:00,63.4,50.9,30.04,NNE,12,1.2,1.2,64,0.00,,CLR,0.03,VWS V14.01,2013-06-19 03:24:00,
2013-06-18 23:29:00,63.2,50.7,30.04,NE,54,3.5,3.5,64,0.00,,CLR,0.03,VWS V14.01,2013-06-19 03:29:00,
2013-06-18 23:34:00,62.9,50.0,30.04,ENE,57,0.0,2.4,63,0.00,,CLR,0.03,VWS V14.01,2013-06-19 03:34:00,
2013-06-18 23:39:00,62.7,49.8,30.03,NNE,28,3.5,5.9,63,0.00,,CLR,0.03,VWS V14.01,2013-06-19 03:39:00,
2013-06-18 23:44:00,62.6,49.7,30.03,East,80,0.0,4.7,63,0.00,,CLR,0.03,VWS V14.01,2013-06-19 03:44:00,
2013-06-18 23:49:00,62.6,49.7,30.03,ENE,74,1.2,7.1,63,0.00,,CLR,0.03,VWS V14.01,2013-06-19 03:49:00,
2013-06-18 23:54:00,62.4,49.5,30.03,SW,221,1.2,7.1,63,0.00,,CLR,0.03,VWS V14.01,2013-06-19 03:54:00,
2013-06-18 23:59:00,62.3,49.4,30.03,ENE,66,4.7,4.7,63,0.00,,CLR,0.03,VWS V14.01,2013-06-19 03:59:00,